Location: Unspecified
(52.4292°N, 19.3359°E)
Time: 13:15:10
(UTC+02:00)

A-11 Canister half - All Passes

Search period start: 19 May 2024 00:00
Search period end: 29 May 2024 00:00
Orbit: 1514 x 1685 km, 47.2° (Epoch: 18 May)

Date Brightness Start Highest point End Pass type
(mag) Time Alt. Az. Time Alt. Az. Time Alt. Az.
19 May - 02:19:12 10° S 02:25:33 20° SE 02:31:47 10° E visible
19 May - 04:19:51 10° SW 04:28:40 47° SSE 04:37:20 10° E daylight
19 May - 06:23:33 10° WSW 06:32:43 65° S 06:41:48 10° E daylight
19 May - 08:28:01 10° W 08:36:51 52° SSW 08:45:43 10° SE daylight
19 May - 10:33:11 10° W 10:40:10 25° SW 10:47:13 10° S daylight
20 May - 01:56:37 10° S 02:02:42 19° SE 02:08:40 10° E visible
20 May - 03:56:58 10° SW 04:05:45 46° SSE 04:14:22 10° E visible
20 May - 06:00:36 10° WSW 06:09:46 64° S 06:18:51 10° E daylight
20 May - 08:05:04 10° W 08:13:56 53° SSW 08:22:49 10° SE daylight
20 May - 10:10:08 10° W 10:17:18 26° SW 10:24:32 10° S daylight
21 May - 01:34:04 10° S 01:39:51 18° SE 01:45:32 10° E visible
21 May - 03:34:06 10° SW 03:42:51 44° SSE 03:51:24 10° E visible
21 May - 05:37:38 10° WSW 05:46:50 64° S 05:55:55 10° E daylight
21 May - 07:42:05 10° W 07:51:01 55° SSW 07:59:55 10° SE daylight
21 May - 09:47:05 10° W 09:54:26 28° SW 10:01:50 10° SSE daylight
22 May - 01:11:34 10° SSE 01:17:00 17° SE 01:22:21 10° E visible
22 May - 03:11:15 10° SW 03:19:56 43° SSE 03:28:26 10° E visible
22 May - 05:14:41 10° WSW 05:23:53 64° S 05:32:58 10° E daylight
22 May - 07:19:07 10° W 07:28:05 56° SSW 07:37:01 10° ESE daylight
22 May - 09:24:04 10° W 09:31:34 29° SW 09:39:07 10° SSE daylight
23 May - 00:49:07 10° SSE 00:54:09 16° SE 00:59:08 10° E visible
23 May - 02:48:24 10° SW 02:57:01 41° SSE 03:05:28 10° E visible
23 May - 04:51:43 10° WSW 05:00:57 63° S 05:10:01 10° E daylight
23 May - 06:56:09 10° W 07:05:10 57° SSW 07:14:07 10° ESE daylight
23 May - 09:01:02 10° W 09:08:42 30° SW 09:16:22 10° SSE daylight
24 May - 00:26:43 10° SSE 00:31:19 15° SE 00:35:51 10° E visible
24 May - 02:25:33 10° SSW 02:34:08 40° SSE 02:42:31 10° E visible
24 May - 04:28:47 10° WSW 04:38:01 63° S 04:47:04 10° E daylight
24 May - 06:33:11 10° W 06:42:15 58° SSW 06:51:13 10° ESE daylight
24 May - 08:38:02 10° W 08:45:50 32° SW 08:53:38 10° SSE daylight
25 May - 00:04:25 10° SSE 00:08:29 13° SE 00:12:31 10° E visible
25 May - 02:02:42 10° SSW 02:11:14 38° SSE 02:19:32 10° E visible
25 May - 04:05:49 10° WSW 04:15:04 62° S 04:24:07 10° E daylight
25 May - 06:10:13 10° W 06:19:18 59° SSW 06:28:18 10° ESE daylight
25 May - 08:15:01 10° W 08:22:57 33° SW 08:30:53 10° SSE daylight
25 May - 23:42:13 10° SSE 23:45:39 12° SE 23:49:04 10° ESE visible
26 May - 01:39:53 10° SSW 01:48:20 37° SE 01:56:34 10° E visible
26 May - 03:42:52 10° WSW 03:52:08 61° SSE 04:01:10 10° E visible
26 May - 05:47:14 10° W 05:56:23 60° SSW 06:05:23 10° ESE daylight
26 May - 07:52:00 10° W 08:00:04 35° SW 08:08:06 10° SSE daylight
26 May - 10:00:33 10° WSW 10:02:34 11° WSW 10:04:36 10° SW daylight
26 May - 23:20:14 10° SE 23:22:49 11° SE 23:25:24 10° ESE visible
27 May - 01:17:04 10° SSW 01:25:25 35° SE 01:33:35 10° E visible
27 May - 03:19:55 10° WSW 03:29:11 60° SSE 03:38:14 10° E visible
27 May - 05:24:15 10° W 05:33:26 61° SSW 05:42:28 10° ESE daylight
27 May - 07:29:00 10° W 07:37:11 37° SW 07:45:19 10° SSE daylight
27 May - 09:36:44 10° WSW 09:39:45 12° SW 09:42:48 10° SW daylight
27 May - 22:58:50 10° SE 23:00:00 10° ESE 23:01:10 10° ESE visible
28 May - 00:54:15 10° SSW 01:02:32 34° SE 01:10:36 10° E visible
28 May - 02:56:58 10° WSW 03:06:15 59° SSE 03:15:17 10° E visible
28 May - 05:01:18 10° W 05:10:30 62° S 05:19:32 10° ESE daylight
28 May - 07:06:00 10° W 07:14:18 38° SSW 07:22:32 10° SSE daylight
28 May - 09:13:12 10° W 09:16:56 13° SW 09:20:42 10° SSW daylight
